Location: Newark
(33.8183°N, 118.0392°W)
Time: 13:40:54
(UTC+00:00)

N. Korean satellite - Visible Passes

Search period start: 19 October 2019 00:00
Search period end: 29 October 2019 00:00
Orbit: 455 x 508 km, 97.2° (Epoch: 18 October)

Date Brightness Start Highest point End Pass type
(mag) Time Alt. Az. Time Alt. Az. Time Alt. Az.
19 Oct 9.1 01:39:39 10° SSW 01:42:34 26° W 01:45:31 10° NW visible
19 Oct 9.1 13:09:21 10° NE 13:12:29 27° E 13:15:38 10° SSE visible
20 Oct 10.3 12:45:24 10° ENE 12:47:04 13° E 12:48:45 10° ESE visible
22 Oct 10.0 01:58:03 10° SW 02:00:07 15° W 02:02:12 10° WNW visible
22 Oct 7.8 13:26:27 10° NNE 13:30:00 49° E 13:33:34 10° S visible
23 Oct 8.5 01:31:34 10° SSW 01:34:42 34° W 01:37:52 10° NNW visible
23 Oct 9.5 13:01:45 10° NE 13:04:38 22° E 13:07:33 10° SSE visible
24 Oct 10.6 12:39:00 10° E 12:39:12 10° E 12:39:25 10° E visible
26 Oct 9.7 01:49:40 10° SW 01:52:12 19° W 01:54:46 10° NW visible
26 Oct 8.4 13:18:42 10° NNE 13:22:10 38° E 13:25:37 10° SSE visible
27 Oct 9.9 12:54:13 10° NE 12:56:45 18° E 12:59:18 10° SE visible
